Regional Weather Roundup
Issued by NWS Cleveland, OH

Home | Current Version | Previous Version | Text Only | Print | Product List | Glossary Off
Versions: 1 2 3 4 5 6 7 8 9 10 11 12 13 14 15 16 17 18 19 20 21 22 23 24 25 26 27 28 29 30 31 32 33 34 35 36 37 38 39 40 41 42 43 44 45 46 47 48 49 50

000
ASUS41 KCLE 291710
RWRCLE
OHIO REGIONAL WEATHER ROUNDUP
NATIONAL WEATHER SERVICE CLEVELAND, OH
100 PM EDT SAT AUG 29 2015

NOTE: "FAIR" INDICATES FEW OR NO CLOUDS BELOW 12,000 FEET WITH NO
SIGNIFICANT WEATHER AND/OR OBSTRUCTIONS TO VISIBILITY.

OHZ001>008-015>018-024>027-034-035-043-044-291800-
   NORTHWEST OHIO

CITY           SKY/WX    TMP DP  RH WIND       PRES   REMARKS
DEFIANCE       PTSUNNY   80  62  54 CALM      30.10F
FINDLAY        MOSUNNY   81  66  60 MISG      30.11F
TOLEDO EXPRESS PTSUNNY   77  62  59 SE7       30.10F
TOLEDO EXEC    PTSUNNY   78  60  53 S6        30.12F
LIMA           MOSUNNY   81  66  60 SW8       30.12F
$$

OHZ009>014-019>023-028>033-038-089-291800-
   NORTHEAST OHIO

CITY           SKY/WX    TMP DP  RH WIND       PRES   REMARKS
CLE-HOPKINS    CLOUDY    79  59  50 SE5       30.16F
CLE-LAKEFRONT  MOSUNNY   80  61  52 N6        30.13F
CUY CO. ARPT   MOSUNNY   82  59  44 S6        30.15F
LORAIN-ELYRIA  PTSUNNY   79  61  53 CALM      30.14F
ASHTABULA      MOSUNNY   78  57  48 S6        30.16F
AKRON-CANTON   PTSUNNY   80  58  46 SW5G17    30.16F
WOOSTER        MOSUNNY   79  61  53 SW9       30.16F
MANSFIELD      MOSUNNY   78  63  59 S7        30.15F
YOUNGSTOWN     PTSUNNY   78  57  48 W7        30.17F
$$

OHZ042-051>053-060>062-070>072-077>081-291800-
  SOUTHWEST OHIO

CITY           SKY/WX    TMP DP  RH WIND       PRES   REMARKS
CINC-COVINGTON MOSUNNY   83  69  62 VRB6      30.14F
CINC-LUNKEN    PTSUNNY   83  71  67 S9        30.13F
HAMILTON       MOSUNNY   86  69  56 VRB3      30.13F HX  90
DAYTON         PTSUNNY   81  66  60 SW9       30.14F
WRIGHT-PAT AFB PTSUNNY   82  67  60 SW6       30.13S
DAYTON GENERAL PTSUNNY   83  64  52 VRB7      30.13F
WILMINGTON     MOSUNNY   83  66  56 SW13G18   30.14F
$$

OHZ036-037-039>041-045>050-054>059-063>069-073>076-082>088-291800-
  CENTRAL AND SOUTHEAST OHIO

CITY           SKY/WX    TMP DP  RH WIND       PRES   REMARKS
COLUMBUS       PTSUNNY   82  65  56 SW7       30.13F
OSU AIRPORT    PTSUNNY   81  65  58 SW8       30.14F
BOLTON FIELD   PTSUNNY   82  70  65 W8        30.14F
RICKENBACK AFB PTSUNNY   84  66  54 W7        30.13F
NEWARK         SUNNY     85  66  53 SW10      30.14F
MARION         MOSUNNY   79  64  60 SW8       30.14F
LANCASTER      MOSUNNY   83  66  56 SW10      30.15F
ZANESVILLE     SUNNY     85  61  44 MISG      30.15F
NEW PHILLY     MOSUNNY   82  61  48 SW6       30.17F
$$


USA.gov is the U.S. government's official web portal to all federal, state and local government web resources and services.